Dewpoint
49 49 49 48 48 48 48 48 48 48 48 48 48 47 48 47 47 48 48 47 47 47 47 47 46 47 48 50 46 46 46 45 46 47 47 47 47 49 51 52 54 57 60 61 62 62 62 61 61 61 62 61 61 62 62 62 61 61 61 60 60 60 59 58 56 56 56 57 58 59 60 60 60 61 61 61 60 60 60 61 61 61 60 60 59
48 48 49 48 48 48 48 48 48 47 47 46 46 46 46 46 46 45 45 46 46 46 46 46 45 45 46 48 47 45 44 44 44 44 44 44 44 45 47 47 49 52 56 58 61 61 61 61 61 62 62 61 61 61 61 61 61 61 61 60 60 60 60 58 57 56 56 55 57 58 59 60 59 61 60 60 60 60 60 60 61 61 60 60 60
48 48 48 48 48 47 47 47 47 46 46 45 45 45 45 45 44 43 43 44 44 45 45 45 45 44 45 46 46 44 44 43 43 43 43 43 42 43 44 45 46 49 52 55 58 60 61 61 61 61 62 61 61 61 61 61 61 61 60 61 60 60 60 60 58 56 56 56 57 58 59 59 59 60 60 60 60 60 60 60 59 60 60 60 60
48 47 47 47 47 46 46 46 46 46 45 45 44 44 44 44 44 42 42 42 42 43 44 44 44 44 44 44 44 44 43 43 42 42 42 42 42 42 43 43 44 46 49 52 55 59 60 61 61 61 61 61 61 61 61 61 61 61 60 60 60 60 60 60 59 58 57 56 56 58 58 59 59 60 60 60 60 60 60 60 59 59 60 60 60
47 46 46 46 46 46 46 46 45 45 45 44 44 44 43 43 43 43 42 41 41 41 42 43 43 43 43 43 43 43 43 42 42 42 41 41 41 41 42 43 44 44 46 49 54 56 59 60 60 61 61 60 60 60 61 60 61 61 60 60 60 60 60 60 60 59 58 57 57 57 58 59 59 58 60 59 59 59 59 60 59 59 59 59 59
47 46 45 45 45 45 45 45 45 45 45 44 44 44 43 43 42 42 42 41 41 41 41 41 42 42 42 42 43 43 42 42 41 41 41 41 41 41 42 42 43 44 45 47 50 53 57 60 60 61 61 60 60 60 60 60 60 60 60 60 60 60 60 59 59 59 58 58 57 56 57 58 58 58 59 59 58 58 58 59 59 59 58 58 59
46 46 45 45 45 44 44 44 45 44 44 44 44 44 43 43 42 42 42 41 41 40 41 41 41 41 42 42 42 42 42 41 41 41 40 40 40 41 41 42 43 44 46 46 48 50 54 58 60 61 60 61 61 61 60 60 60 60 60 60 60 60 59 59 59 58 58 57 57 57 57 58 58 57 58 59 58 58 57 56 56 58 58 58 57
45 45 45 44 44 44 44 44 45 45 45 44 43 43 43 43 43 42 42 41 41 40 40 40 40 41 41 41 41 42 41 41 41 40 40 40 40 41 41 42 43 44 45 46 48 49 52 56 60 61 61 61 61 61 61 60 60 60 60 60 60 59 59 59 58 58 58 57 57 56 57 57 57 56 58 58 57 57 57 56 55 55 57 58 58
44 44 44 44 44 44 44 44 43 44 44 44 43 42 42 42 42 42 41 40 41 40 40 40 40 40 40 40 40 41 41 41 41 40 40 40 40 41 41 42 44 45 46 47 48 50 52 55 58 60 61 61 58 58 58 58 60 59 60 60 59 59 59 58 58 57 57 57 56 57 56 56 57 56 55 56 56 55 56 55 55 56 56 56 57
42 41 41 41 42 42 42 43 42 42 43 43 43 42 41 41 41 41 40 40 39 40 39 39 40 39 39 39 40 41 41 41 42 41 41 40 40 41 42 44 46 47 48 48 49 51 53 54 56 57 57 57 56 53 51 52 55 59 60 60 59 59 58 58 57 57 57 56 56 56 55 55 56 56 55 56 57 56 55 55 54 54 54 54 54
39 39 39 39 39 39 39 39 39 40 41 42 42 43 42 41 40 40 40 40 39 39 39 38 39 39 39 39 39 40 40 40 39 38 38 39 41 42 43 46 48 49 49 48 49 49 49 50 51 54 57 58 57 51 49 49 49 49 52 55 57 59 58 58 57 57 57 57 57 56 56 55 56 56 55 55 56 56 55 55 54 53 52 51 50
38 38 38 38 38 38 38 38 37 38 38 38 39 40 40 40 40 40 40 40 39 39 38 38 38 38 39 39 39 39 39 40 38 38 38 38 40 42 44 46 46 46 46 46 47 47 47 47 48 49 51 53 56 59 54 49 48 48 47 48 49 51 53 57 58 57 57 57 56 56 56 56 56 57 56 54 54 55 55 54 54 52 51 51 51
38 37 37 36 36 37 36 36 36 36 36 37 37 37 37 37 38 39 39 40 39 38 38 38 38 38 38 38 39 39 39 39 38 38 38 38 38 41 43 45 45 45 45 45 45 45 45 46 46 47 48 50 52 55 60 58 51 48 48 48 48 47 47 48 51 58 58 58 57 56 56 57 56 57 57 55 54 54 54 54 53 52 51 50 50
35 35 35 35 35 35 35 35 34 35 35 35 35 34 34 35 36 37 38 38 37 37 37 37 37 37 38 38 38 38 38 39 38 38 38 38 38 40 42 44 44 44 44 44 44 44 44 44 45 44 45 45 47 50 50 54 59 56 52 52 54 53 47 45 46 48 53 58 58 57 57 57 57 57 57 55 54 54 54 54 53 52 51 50 50
34 34 34 34 34 34 34 34 34 34 34 34 34 33 33 33 34 36 36 36 37 36 36 36 37 37 37 37 38 38 38 38 37 37 37 37 38 40 42 43 42 42 42 42 43 43 43 44 44 43 42 43 44 44 45 45 50 57 55 54 54 55 55 54 54 53 54 58 59 58 58 58 58 58 58 58 56 55 55 54 54 53 52 50 49
34 34 33 33 33 33 33 33 33 33 33 33 32 32 32 32 33 34 35 34 35 36 35 35 36 36 36 37 37 37 38 38 37 37 37 37 38 40 41 41 41 41 41 41 41 42 42 43 43 42 41 41 42 40 40 41 46 54 56 55 55 54 53 49 45 45 53 57 59 59 59 58 54 57 57 58 57 55 54 54 54 53 51 50 49
34 34 34 34 35 34 33 33 33 32 32 32 32 32 32 31 32 35 32 33 34 35 35 34 35 35 36 36 37 36 37 38 37 37 37 37 39 39 40 40 40 40 41 41 41 41 41 42 42 41 40 40 40 38 37 39 45 53 56 55 53 51 50 48 42 39 40 40 41 43 47 49 48 48 48 50 53 55 55 53 52 52 50 49 48
35 35 34 35 34 34 34 33 32 33 32 32 32 32 32 31 31 33 32 32 33 34 35 34 34 35 35 35 37 36 37 38 37 37 37 37 39 39 39 40 40 40 40 41 41 41 41 43 44 40 39 40 38 37 38 40 47 53 56 53 50 50 48 49 48 46 41 40 41 42 42 45 46 45 46 47 48 51 54 52 53 52 51 50 49
35 35 35 35 35 35 34 34 32 32 31 32 32 32 32 32 32 32 32 32 33 33 36 33 34 34 34 35 38 36 37 38 38 37 37 37 38 38 39 39 40 40 40 40 40 40 40 42 42 39 39 39 37 38 38 41 48 52 55 54 50 49 48 49 48 48 49 48 48 48 47 47 49 49 48 45 46 51 55 55 54 52 51 50 49
35 35 35 35 35 35 34 35 34 32 31 31 32 32 33 31 31 31 32 32 33 33 34 34 33 34 34 34 35 35 37 37 38 37 37 37 38 38 38 38 38 39 39 39 39 39 40 40 40 37 36 37 37 37 38 39 48 53 53 51 50 47 49 48 48 48 47 47 47 47 47 47 47 48 48 48 49 51 54 55 54 53 52 50 49
36 36 35 35 35 34 34 33 33 33 32 32 32 33 32 31 32 31 32 32 33 33 33 34 34 34 34 34 35 35 37 37 37 37 37 37 37 37 37 38 38 39 39 39 38 38 38 39 39 38 36 37 37 37 38 38 40 47 49 49 48 47 46 47 47 46 47 46 46 46 46 46 46 46 46 46 46 46 47 49 51 53 52 51 50
37 36 36 35 35 34 34 33 34 34 34 32 31 31 32 32 33 32 32 32 32 33 33 34 33 33 34 34 35 35 37 39 37 38 37 37 37 37 37 37 37 39 38 38 38 38 38 38 38 38 36 36 36 37 37 38 39 43 41 40 40 42 47 47 47 47 46 46 45 44 44 44 44 44 44 45 45 46 46 45 46 47 48 51 51
36 36 36 36 35 34 34 33 33 34 33 33 31 31 31 32 32 33 32 32 32 33 33 33 33 33 33 34 35 35 35 37 38 38 37 37 37 37 36 37 36 39 38 38 38 38 38 38 38 38 36 36 37 37 37 37 39 39 38 39 40 41 43 45 45 45 45 44 43 43 43 43 43 43 43 44 45 45 45 46 46 46 46 46 46
36 36 35 35 35 36 35 34 33 32 33 32 32 31 31 31 32 32 32 32 32 32 33 33 33 33 32 33 34 35 35 36 37 37 37 37 37 37 36 36 36 37 38 38 38 38 37 37 37 36 36 36 37 37 37 37 38 37 37 38 40 42 45 44 44 43 42 42 42 42 42 43 43 43 43 44 44 45 45 45 46 46 46 46 46
35 35 34 34 35 34 34 33 33 32 31 31 31 31 31 31 31 31 32 32 32 32 32 33 32 33 32 32 33 34 35 35 36 37 37 37 37 36 36 36 36 36 37 38 38 38 36 36 36 36 36 36 36 37 37 37 36 37 37 38 41 42 43 43 43 43 42 41 42 42 42 42 43 43 44 44 44 45 44 45 45 45 45 45 45
35 34 33 33 34 34 33 32 32 32 32 31 32 31 30 31 32 31 31 31 31 31 32 32 32 32 32 32 33 33 34 34 35 35 37 38 37 37 37 36 37 37 37 37 36 36 36 36 36 36 36 37 38 38 38 38 37 37 38 39 40 41 41 41 41 41 41 41 41 41 42 43 43 43 43 44 43 43 43 43 43 43 44 44 43
35 34 33 33 32 32 31 31 31 31 30 31 31 32 30 29 30 31 30 30 31 31 31 31 32 32 32 32 32 33 33 34 34 34 35 36 37 37 37 37 37 37 37 37 37 38 37 37 36 36 36 36 36 36 36 37 38 39 40 40 40 40 40 40 40 40 40 40 40 41 42 43 43 42 43 43 42 43 43 42 42 42 42 43 42
35 33 33 33 33 32 32 33 33 30 30 30 30 30 30 30 29 30 29 29 30 31 31 31 31 31 31 31 32 33 33 34 34 34 35 35 36 37 37 37 36 36 36 36 37 38 37 36 36 37 37 37 37 37 37 37 37 37 38 39 39 39 39 39 39 39 40 40 40 41 40 41 41 41 42 41 42 42 42 42 42 42 42 41 40
34 33 33 32 33 33 33 32 31 30 28 28 28 29 31 30 30 29 27 28 30 30 31 30 31 30 29 30 31 32 33 33 34 35 35 35 35 36 36 36 36 36 37 35 36 36 35 36 35 35 35 35 34 35 35 36 36 37 37 38 39 39 39 39 38 37 38 39 38 38 38 40 40 40 40 40 40 41 42 42 42 41 41 41 40
32 32 32 32 32 33 32 32 32 32 29 29 30 30 32 34 32 29 29 34 35 35 34 30 31 31 31 31 30 30 32 33 34 34 35 35 35 35 35 36 36 36 36 35 36 34 34 34 35 34 34 34 34 34 34 34 35 35 36 35 37 37 37 37 37 37 37 37 38 37 37 37 37 38 38 38 39 41 40 39 41 41 40 39 39
31 30 31 32 33 33 32 32 32 32 30 30 30 29 29 31 33 34 34 35 35 34 34 34 34 34 33 31 33 34 34 34 34 34 35 35 35 35 35 35 35 35 35 33 33 33 33 33 34 34 34 34 34 34 34 34 34 34 35 36 37 36 35 36 36 35 35 34 35 35 34 35 34 35 35 35 36 38 39 39 40 40 40 39 38
30 30 31 31 32 31 31 31 31 32 30 30 29 28 28 28 29 31 33 34 34 35 35 34 34 34 34 34 34 32 33 34 34 34 34 34 34 35 35 35 35 35 34 34 32 32 33 33 33 33 34 33 33 33 34 34 34 34 34 34 34 35 36 35 35 36 34 34 33 33 33 33 34 33 34 34 34 36 37 37 37 37 37 38 38
30 29 29 30 31 30 30 30 30 30 30 29 29 28 27 26 26 26 29 32 33 34 34 34 34 34 34 34 34 34 34 34 34 34 34 34 34 34 34 34 34 35 34 33 32 32 32 33 33 33 33 33 34 34 35 35 35 34 34 34 34 35 36 36 34 36 34 34 33 33 33 33 32 32 32 33 34 34 35 35 37 37 37 36 35
30 30 30 30 30 30 30 31 30 29 29 28 28 27 27 27 26 26 26 27 28 30 31 33 33 33 33 34 34 34 34 34 34 34 34 34 34 34 34 33 34 34 34 32 32 31 32 32 32 32 32 33 33 33 34 34 34 34 34 34 34 35 35 36 36 34 33 33 33 33 33 33 32 32 32 33 33 34 34 34 35 34 34 34 34
31 29 28 29 30 30 30 28 29 28 28 29 28 27 28 27 26 26 26 26 26 25 26 28 31 33 31 32 34 34 34 34 34 34 34 34 34 34 33 32 31 32 32 32 32 32 31 31 31 32 32 32 32 32 33 34 34 33 33 33 33 33 33 33 33 34 33 33 33 33 32 33 33 32 32 32 32 32 32 33 33 34 34 34 34
31 29 31 30 29 28 28 29 29 29 29 28 28 27 27 27 27 27 27 28 27 26 26 26 26 30 33 33 33 33 33 34 34 34 33 33 33 33 30 30 30 31 31 31 31 31 31 31 31 31 31 31 31 31 32 32 33 33 33 33 31 32 32 32 31 31 31 32 31 31 32 32 32 32 32 32 33 32 32 32 32 32 32 33 32
29 28 28 28 28 28 28 28 29 29 28 27 28 28 27 27 27 27 27 27 26 26 25 26 27 28 29 29 34 33 33 33 33 33 33 33 33 31 30 29 29 29 30 30 30 30 29 30 30 30 30 30 30 30 30 30 30 31 31 32 32 31 30 31 31 30 30 29 30 30 30 30 31 31 31 32 31 31 31 31 31 31 31 31 32
27 28 29 30 29 30 28 29 27 27 27 28 28 27 27 27 26 26 26 26 26 26 26 26 30 25 25 27 37 31 28 31 32 32 32 31 30 30 29 29 29 28 29 29 29 29 29 29 29 29 29 29 29 30 30 29 30 30 29 29 29 29 31 29 30 30 29 29 28 29 29 29 29 30 30 30 30 31 31 31 31 30 31 31 31
27 27 27 28 28 29 29 28 28 28 27 27 27 27 26 26 26 26 25 25 26 26 25 26 26 26 26 26 27 30 30 29 28 26 28 28 29 29 28 29 29 29 29 28 29 29 28 29 29 29 29 29 28 29 29 29 28 28 28 28 28 28 28 27 27 27 27 27 27 27 28 28 29 29 29 29 29 30 30 30 31 31 30 30 30
27 27 27 28 28 29 28 27 27 27 26 27 26 26 26 26 26 26 25 25 25 25 25 26 26 26 26 26 26 27 28 26 26 26 26 26 27 28 28 28 28 27 28 29 29 28 28 29 29 28 28 28 28 28 28 28 28 27 28 28 27 27 27 27 27 27 27 27 26 26 26 27 28 28 28 29 29 29 29 29 29 30 30 30 30
27 27 27 27 28 29 28 27 27 26 26 25 26 27 27 26 25 25 25 25 25 25 25 26 27 27 27 27 30 29 26 27 27 27 26 26 25 27 28 28 26 28 28 28 29 28 27 28 28 28 28 28 28 27 27 27 28 26 26 27 27 27 27 26 27 27 26 26 25 25 26 26 27 27 27 28 30 29 29 29 29 29 29 29 29
28 27 27 27 28 27 27 26 27 27 25 25 27 27 26 26 26 25 25 25 25 25 25 26 27 27 29 31 32 32 27 26 25 26 25 26 27 27 26 27 27 27 27 27 27 28 28 27 27 27 27 26 27 27 27 26 25 24 24 24 24 25 25 25 25 26 26 25 25 25 24 26 26 27 28 29 28 29 29 29 29 28 28 28 28
28 28 27 27 26 26 26 26 26 25 24 25 25 26 26 26 26 25 25 25 26 26 26 26 28 27 27 29 28 29 26 26 27 26 26 26 26 26 27 25 27 27 27 26 26 26 25 24 25 26 23 23 24 23 23 22 22 22 22 22 22 22 22 23 23 24 25 25 25 24 23 24 24 23 25 26 27 27 27 28 28 28 28 27 28
27 27 27 27 26 25 26 27 26 25 24 25 25 25 26 26 26 27 26 26 25 25 26 26 26 27 27 27 27 26 26 26 26 26 26 26 26 25 26 26 26 27 27 27 26 26 23 23 22 22 24 24 23 24 22 23 22 21 20 20 21 21 20 20 21 21 22 22 23 24 23 23 23 22 23 25 24 25 25 26 26 27 27 26 26
27 27 27 26 26 24 24 25 25 25 25 25 24 25 25 26 25 24 24 24 25 26 26 26 26 26 26 26 26 26 26 25 26 26 24 26 27 26 25 25 25 26 26 25 25 25 23 22 22 21 21 22 23 22 21 19 21 19 18 18 17 17 17 17 16 18 19 20 21 22 22 21 21 21 21 22 23 22 23 23 24 26 25 25 25
26 27 26 25 25 24 24 24 25 25 24 24 23 23 23 24 24 24 24 25 26 25 26 26 26 26 26 26 26 26 26 25 26 26 25 25 25 26 25 25 24 25 24 23 23 23 22 22 22 22 21 20 20 19 19 20 20 21 20 20 16 15 16 17 17 17 18 19 20 19 20 20 19 22 23 19 20 21 21 21 22 23 23 24 24
27 26 26 25 24 25 25 24 24 24 24 24 24 23 22 23 23 24 25 25 26 25 25 26 26 27 27 27 27 27 26 25 26 25 26 26 25 25 24 24 25 25 25 24 23 22 22 22 21 21 21 21 20 19 20 19 18 17 19 17 14 13 13 13 12 14 16 18 19 18 19 19 19 19 21 20 20 20 20 21 21 21 22 23 23
26 25 25 26 25 25 25 25 24 25 24 25 24 24 23 24 24 25 25 26 26 26 26 26 26 27 27 28 28 28 28 27 26 26 26 26 26 25 24 24 24 25 24 25 25 22 22 23 22 20 21 21 21 18 18 19 18 17 16 15 15 14 15 13 11 14 15 16 18 18 17 18 17 18 19 19 17 18 19 19 19 20 21 22 23
26 25 25 25 26 25 25 25 25 23 24 24 24 23 24 24 25 25 25 25 25 26 26 27 27 26 27 27 27 27 28 28 28 27 27 26 26 26 24 23 25 25 24 26 26 25 23 22 23 23 20 19 19 19 17 19 16 16 14 12 13 14 14 15 14 14 16 14 16 17 17 17 17 17 18 17 17 16 17 17 18 19 18 20 21
26 26 25 25 24 25 25 25 24 23 24 25 23 22 24 24 24 25 25 25 25 25 25 26 27 27 27 27 27 27 27 28 28 28 28 27 26 26 24 25 24 23 23 24 26 26 25 23 22 22 22 20 19 19 19 18 17 16 13 12 14 14 14 15 15 15 17 13 16 16 17 17 15 15 15 15 15 16 18 18 18 20 18 18 20
27 26 26 26 24 24 25 24 24 23 23 24 23 22 23 23 24 25 25 25 25 26 26 27 27 27 27 28 27 27 28 27 27 27 27 28 27 27 25 25 25 25 24 24 25 25 25 25 24 22 22 21 20 19 18 17 15 13 14 14 14 14 14 13 15 15 16 15 14 17 19 18 17 19 18 18 18 18 20 19 19 17 18 19 20